Regional Weather Roundup
Issued by NWS

Home | Current Version | Previous Version | Text Only | Print | Product List | Glossary On
Versions: 1 2 3 4 5 6 7 8 9 10 11 12 13 14 15 16 17 18 19 20 21 22 23 24 25 26 27 28 29 30 31 32 33 34 35 36 37 38 39 40 41 42 43 44 45 46 47 48 49 50
000
ASUS42 KTBW 051110
RWRFL
FLORIDA REGIONAL WEATHER ROUNDUP
NATIONAL WEATHER SERVICE TAMPA BAY RUSKIN FL
600 AM EST THU MAR 05 2015

NOTE: "FAIR" INDICATES FEW OR NO CLOUDS BELOW 12,000 FEET WITH NO
SIGNIFICANT WEATHER AND/OR OBSTRUCTIONS TO VISIBILITY.


FLZ001>010-012>015-112-114-115-051200-
PANHANDLE FLORIDA

CITY           SKY/WX    TMP DP  RH WIND       PRES   REMARKS
PENSACOLA      FOG       68  68 100 S13       29.95R VSB 3/4
PENSACOLA NAS  FOG       66  66 100 S10       29.95R VSB<1/4
MILTON NAS     CLOUDY    70  68  93 S12       29.95R FOG
CRESTVIEW      CLOUDY    72  69  90 SW9       29.97R
DUKE FIELD     CLOUDY    71  69  94 SW13      29.95R
VALPARAISO     FOG       66  66 100 S8        29.94R VSB 1/4
MARY ESTHER    FOG       68  64  84 S9        29.95R VSB 1/4
TRI COUNTY     CLOUDY    70  67  90 S8        29.97R
PANAMA CITY    CLOUDY    69  68  96 S10       29.96F
APALACHICOLA   FOG       69  66  90 SW3       30.02R VSB 1/2

STATION/POSITION SKY/WX   TEMP    WIND        PRES    WAVE   SWELL
                          AIR SEA DIR/SP/G            HT/PER HT/PER
                          (F)     (DEG/KT/KT) (MB)    (FT/S) (FT/S)
30.1N   87.6W              68 65  190/ 10/ 12 1013.5R   3/ 7   3/ 7
29.2N   88.2W              73 71  190/  8/  8 1014.4R   5/ 8   5/ 8
28.7N   86.0W              72 71  190/  8/  8 1016.2R   4/ 7   3/ 7
PANAMA CITY BEAC           63 61  150/ 12/ 13 1014.4F
CAPE SAN BLAS    NOT AVBL
TOWER C                    69     190/ 15/ 16 1016.6R
28.5N   84.5W              70 68  190/ 12/ 12 1016.8R   3/ 6   2/ 6

$$
FLZ011-016>038-118-127-128-134-139-239-051200-
NORTH FLORIDA

CITY           SKY/WX    TMP DP  RH WIND       PRES   REMARKS
MARIANNA       PTCLDY    69  69 100 S9        29.95F
TALLAHASSEE    CLOUDY    69  66  90 S3        30.03R
CROSS CITY       N/A     61  60  97 CALM      30.05R
LAKE CITY      CLOUDY    61  61 100 W3        30.07R FOG
GAINESVILLE    MOCLDY    64  63  96 S5        30.07R
MAYPORT NAS    PTCLDY    61  60  97 CALM      30.06R FOG
JACKSONVILLE   MOCLDY    59  59 100 S3        30.05R
JAX NAS        PTCLDY    68  63  84 S5        30.07R
JAX CRAIG      CLEAR     61  59  93 CALM      30.06R
JAX CECIL      NOT AVBL
FERNANDINA BEA FAIR      68  64  88 CALM      30.05R
ST AUGUSTINE   CLOUDY    67  65  93 SW6       30.08R

STATION/POSITION SKY/WX   TEMP    WIND        PRES    WAVE   SWELL
                          AIR SEA DIR/SP/G            HT/PER HT/PER
                          (F)     (DEG/KT/KT) (MB)    (FT/S) (FT/S)
SHELL POINT                66     220/  6/  7   N/A
KEATON BEACH               65     240/  4/  5 1017.9R
CEDAR KEY                  66     220/  3/  4 1017.9R
FERNANDINA                 62 58  170/  1/  2 1017.2R
30.7N   81.3W                 55                N/A     3/ 6
MAYPORT                    63 60  190/  1/  2 1017.9R
31.4N   80.9W              57 54  190/  8/ 10 1017.3R   4/ 6   3/ 6
ST AUGUSTINE               64     220/  4/  4 1018.9R

$$
FLZ040-043>046-052-053-057-058-063-144-051200-
INTERIOR CENTRAL FLORIDA

CITY           SKY/WX    TMP DP  RH WIND       PRES   REMARKS
OCALA          CLEAR     59  55  88 CALM      30.07R
THE VILLAGES   FOG       63  63 100 SE3       29.97R VSB 1/2
LEESBURG       CLOUDY    69  67  93 S8        30.07R
SANFORD        CLOUDY    66  65  96 CALM      30.07R
ORLANDO EXEC   CLOUDY    70  68  93 S10       30.07R
ORLANDO INTL   FOG       70  69  97 S10       30.07S VSB 1/2
WINTER HAVEN   CLOUDY    69  68  96 S7        30.08R
LAKELAND       CLOUDY    66  66 100 SE6       30.06R FOG
BARTOW         CLOUDY    66 N/A N/A SE5       30.08R HAZE
OKEECHOBEE     CLEAR     70  68  94 SE7       30.07S

$$
FLZ041-047-054-059-064-141-147-051200-
EAST CENTRAL FLORIDA

CITY           SKY/WX    TMP DP  RH WIND       PRES   REMARKS
DAYTONA BEACH  PTCLDY    65  64  97 CALM      30.07R
DELAND         PTSUNNY  N/A N/A N/A S3        30.08R
JFK SPACE CTR  FOG       63  63 100 S2        30.06R VSB 3/4
CAPE CANAVERAL CLEAR     68  66  94 S6        30.06R
MELBOURNE      CLEAR     68  67  96 S6        30.07R
VERO BEACH     CLEAR     72  65  78 S12       30.07R
FT PIERCE      CLEAR     71  68  90 S7        30.07R
STUART         CLEAR     70  64  83 S6        30.08S

STATION/POSITION SKY/WX   TEMP    WIND        PRES    WAVE   SWELL
                          AIR SEA DIR/SP/G            HT/PER HT/PER
                          (F)     (DEG/KT/KT) (MB)    (FT/S) (FT/S)
28.5N   80.2W              72 72  180/ 10/ 12 1018.1R
28.9N   78.5W              74 74  180/ 14/ 17 1019.4R   5/10   3/10
TRIDENT PIER               66 69  150/  3/  5 1018.7R
28.4N   80.5W                 67                N/A     3/ 5   2/11
27.6N   80.2W                 74                N/A     4/10   2/12

$$
FLZ050-056-061-142-242-148-248-149-249-151-251-155-255-
160-260-051200-
WEST CENTRAL FLORIDA

CITY           SKY/WX    TMP DP  RH WIND       PRES   REMARKS
CRYSTAL RIVER  FAIR      59  57  94 CALM      30.06R
INVERNESS      PTSUNNY   57  57 100 CALM      30.07R FOG
BROOKSVILLE    CLOUDY    62  61  96 SE3       30.07R
ZEPHYRHILLS    CLOUDY    66  66 100 S9        30.07S FOG
CLEARWATER     CLEAR     66  64  93 CALM      30.05R
TAMPA INTL     MOCLDY    68  65  90 SE5       30.06R
TAMPA EXEC     CLOUDY    64  63  94 CALM      30.06S FOG
PLANT CITY     CLOUDY   N/A N/A N/A S7        30.08R
MACDILL AFB    MOCLDY    67  67 100 SE6       30.06R
PETER O KNIGHT CLOUDY    70  68  94 S8        30.06R
ST PETERSBURG  CLEAR     67  65  93 SE5       30.04R
SARASOTA       CLEAR     63  63 100 SE5       30.03R
VENICE         FAIR      66  66 100 E5        30.06R

STATION/POSITION SKY/WX   TEMP    WIND        PRES    WAVE   SWELL
                          AIR SEA DIR/SP/G            HT/PER HT/PER
                          (F)     (DEG/KT/KT) (MB)    (FT/S) (FT/S)
CEDAR KEY                  66     220/  3/  4 1017.9R
28.5N   84.5W              70 68  190/ 12/ 12 1016.8R   3/ 6   2/ 6
27.3N   84.3W                 71                N/A     4/ 6
CLEARWATER BEACH           68 66  130/  4/  6 1017.6R
MIDDLE TAMPA BAY           67     150/  5/  7 1017.7R
VENICE                     68 69  110/  5/  7 1017.2R

$$
FLZ066-069-070-075>078-162-262-165-265-051200-
SOUTHWEST FLORIDA AND KEYS

CITY           SKY/WX    TMP DP  RH WIND       PRES   REMARKS
PUNTA GORDA    MOCLDY    68  67  96 SE9       30.07R
FT MYERS       PTCLDY    68  68 100 SE5       30.05R
SOUTHWEST INTL CLOUDY    67  67 100 SE7       30.05R FOG
NAPLES         PTCLDY    69  68  96 SE7       30.05R
MARCO ISLAND   SUNNY     66  64  94 E3        30.05R
IMMOKALEE      CLOUDY   N/A N/A N/A CALM      30.07R
MARATHON       PTCLDY    76  72  87 SE10G17   30.05R
KEY WEST NAS   CLEAR     75  71  87 SE13      30.04R
KEY WEST INTL  CLEAR     76  73  91 SE14      30.04R

STATION/POSITION SKY/WX   TEMP    WIND        PRES    WAVE   SWELL
                          AIR SEA DIR/SP/G            HT/PER HT/PER
                          (F)     (DEG/KT/KT) (MB)    (FT/S) (FT/S)
VENICE                     68 69  110/  5/  7 1017.2R
NAPLES                     69 70  120/  5/  8 1017.1R
26.0N   85.6W              77 77  170/ 16/ 17 1015.5R   5/ 6   2/21
DRY TORTUGAS               75     140/ 16/ 18 1015.9S
NW FL BAY                  77     160/ 16/ 19 1017.2F
SAND KEY                   76     140/ 17/ 20 1017.0R
SOMBRERO KEY               76     140/ 17/ 19 1018.2R
LONG KEY                   76 77  150/ 17/ 19 1017.7R
MOLASSES REEF              76 75  150/ 19/ 21 1017.8R

$$
FLZ067-068-071>074-168-172>174-051200-
SOUTHEAST FLORIDA

CITY           SKY/WX    TMP DP  RH WIND       PRES   REMARKS
W PALM BEACH   PTCLDY    75  67  76 SE13G21   30.06S
FT LAUDER-EXEC PTCLDY    75  70  84 SE13      30.08R
FT LAUDERDALE  PTCLDY    74  70  87 SE13      30.07R
POMPANO BEACH  PTCLDY    75  68  78 SE15      30.08R
PEMBROKE PINES MOCLDY    74  68  81 SE8       30.09R
OPA LOCKA      MOCLDY    75  68  78 SE10      30.08R
MIAMI          MOCLDY    75  69  81 SE9       30.08R
WEST KENDALL   MOCLDY    73  68  84 SE6       30.08R
HOMESTEAD      CLEAR     74  69  82 SE7       30.07R

STATION/POSITION SKY/WX   TEMP    WIND        PRES    WAVE   SWELL
                          AIR SEA DIR/SP/G            HT/PER HT/PER
                          (F)     (DEG/KT/KT) (MB)    (FT/S) (FT/S)
PORT EVERGLADES            76     140/ 10/ 13 1018.5
VIRGINIA KEY               76 76  140/ 11/ 16 1018.1R
LAKE WORTH                 75 75  160/ 17/ 20 1018.0F
SETTLEMENT POINT           74     130/  9/ 11 1019.6R

$$



USA.gov is the U.S. government's official web portal to all federal, state and local government web resources and services.